QPF
0.00 0.00 0.00 0.00 0.00 0.00 0.00 0.01 0.02 0.03 0.03 0.03 0.03 0.02 0.01 0.01 0.00 0.00 0.00 0.00 0.00 0.00 0.00 0.00 0.00 0.00 0.00 0.00 0.00 0.00 0.00 0.00 0.00 0.01 0.01 0.02 0.02 0.04 0.07 0.08 0.10 0.15 0.11
0.00 0.00 0.00 0.00 0.00 0.00 0.00 0.01 0.02 0.02 0.02 0.02 0.02 0.01 0.01 0.00 0.00 0.00 0.00 0.00 0.00 0.00 0.00 0.00 0.00 0.00 0.00 0.00 0.00 0.00 0.00 0.00 0.01 0.02 0.03 0.04 0.05 0.07 0.08 0.09 0.11 0.11 0.10
0.00 0.00 0.00 0.00 0.00 0.00 0.00 0.01 0.01 0.02 0.02 0.02 0.01 0.01 0.01 0.00 0.00 0.00 0.00 0.00 0.00 0.00 0.00 0.00 0.00 0.00 0.00 0.00 0.00 0.00 0.00 0.00 0.02 0.03 0.04 0.10 0.08 0.07 0.07 0.08 0.10 0.07 0.06
0.00 0.00 0.00 0.00 0.00 0.00 0.00 0.00 0.01 0.01 0.01 0.01 0.01 0.01 0.00 0.00 0.00 0.00 0.00 0.00 0.00 0.00 0.00 0.00 0.00 0.00 0.00 0.00 0.00 0.00 0.00 0.01 0.02 0.02 0.03 0.05 0.07 0.06 0.09 0.07 0.07 0.06 0.03
0.00 0.00 0.00 0.00 0.00 0.00 0.00 0.01 0.01 0.01 0.01 0.01 0.01 0.01 0.01 0.00 0.00 0.00 0.00 0.00 0.01 0.01 0.01 0.01 0.01 0.00 0.00 0.00 0.00 0.00 0.00 0.01 0.01 0.01 0.01 0.04 0.09 0.08 0.09 0.08 0.07 0.05 0.02
0.00 0.00 0.00 0.00 0.00 0.01 0.01 0.01 0.01 0.01 0.02 0.02 0.01 0.01 0.01 0.01 0.00 0.00 0.00 0.01 0.01 0.02 0.02 0.02 0.02 0.01 0.01 0.00 0.00 0.00 0.00 0.01 0.01 0.01 0.00 0.01 0.04 0.05 0.07 0.09 0.09 0.07 0.04
0.00 0.00 0.01 0.01 0.01 0.01 0.01 0.02 0.02 0.03 0.03 0.03 0.02 0.02 0.02 0.01 0.01 0.01 0.01 0.01 0.01 0.02 0.03 0.04 0.04 0.03 0.02 0.01 0.00 0.00 0.00 0.01 0.03 0.02 0.01 0.01 0.02 0.03 0.06 0.10 0.12 0.09 0.06
0.00 0.00 0.01 0.01 0.01 0.01 0.02 0.03 0.03 0.03 0.04 0.04 0.04 0.04 0.04 0.03 0.03 0.03 0.02 0.02 0.02 0.02 0.03 0.04 0.05 0.04 0.03 0.02 0.01 0.00 0.01 0.02 0.03 0.03 0.03 0.03 0.02 0.02 0.05 0.08 0.11 0.11 0.08
0.00 0.00 0.01 0.02 0.02 0.02 0.03 0.04 0.04 0.05 0.05 0.05 0.05 0.05 0.04 0.03 0.04 0.04 0.05 0.04 0.03 0.03 0.03 0.04 0.05 0.06 0.06 0.04 0.02 0.01 0.01 0.03 0.04 0.06 0.04 0.05 0.02 0.02 0.04 0.05 0.07 0.08 0.09
0.00 0.00 0.01 0.03 0.03 0.03 0.04 0.04 0.05 0.05 0.05 0.05 0.05 0.06 0.05 0.05 0.05 0.06 0.06 0.05 0.04 0.04 0.05 0.06 0.07 0.09 0.10 0.07 0.05 0.03 0.02 0.02 0.03 0.04 0.05 0.04 0.02 0.04 0.05 0.05 0.05 0.05 0.06
0.00 0.01 0.01 0.02 0.03 0.03 0.03 0.04 0.06 0.06 0.08 0.09 0.09 0.10 0.10 0.10 0.10 0.10 0.07 0.06 0.05 0.06 0.07 0.09 0.11 0.15 0.14 0.10 0.09 0.07 0.04 0.02 0.02 0.04 0.05 0.03 0.02 0.05 0.09 0.12 0.09 0.05 0.04
0.01 0.01 0.01 0.02 0.03 0.04 0.05 0.08 0.10 0.10 0.14 0.15 0.16 0.14 0.14 0.17 0.16 0.11 0.10 0.09 0.08 0.09 0.11 0.12 0.15 0.15 0.15 0.11 0.13 0.11 0.05 0.03 0.02 0.02 0.02 0.02 0.02 0.04 0.10 0.15 0.14 0.10 0.06
0.04 0.03 0.03 0.06 0.06 0.08 0.13 0.20 0.15 0.13 0.15 0.17 0.19 0.21 0.23 0.24 0.22 0.19 0.19 0.18 0.16 0.14 0.14 0.16 0.16 0.13 0.13 0.13 0.14 0.12 0.08 0.06 0.03 0.02 0.01 0.02 0.02 0.03 0.07 0.11 0.14 0.13 0.11
0.05 0.06 0.07 0.09 0.10 0.13 0.21 0.21 0.17 0.14 0.16 0.16 0.19 0.22 0.22 0.22 0.22 0.20 0.18 0.17 0.17 0.17 0.19 0.19 0.19 0.17 0.15 0.12 0.10 0.11 0.10 0.09 0.04 0.03 0.03 0.03 0.02 0.02 0.03 0.06 0.10 0.13 0.14
0.11 0.11 0.10 0.11 0.13 0.13 0.14 0.14 0.14 0.12 0.12 0.12 0.11 0.11 0.12 0.13 0.15 0.15 0.14 0.14 0.13 0.14 0.15 0.16 0.16 0.17 0.16 0.14 0.09 0.07 0.08 0.08 0.07 0.07 0.04 0.03 0.04 0.03 0.02 0.03 0.06 0.10 0.13
0.16 0.14 0.13 0.13 0.13 0.12 0.12 0.12 0.11 0.08 0.07 0.05 0.04 0.04 0.04 0.05 0.07 0.07 0.08 0.09 0.09 0.09 0.10 0.10 0.10 0.13 0.13 0.14 0.10 0.09 0.09 0.11 0.09 0.07 0.04 0.04 0.05 0.04 0.03 0.03 0.04 0.07 0.10
0.18 0.13 0.11 0.12 0.10 0.07 0.05 0.04 0.03 0.02 0.02 0.01 0.00 0.00 0.00 0.01 0.02 0.03 0.04 0.04 0.04 0.04 0.05 0.06 0.06 0.06 0.07 0.08 0.09 0.10 0.10 0.09 0.08 0.07 0.05 0.04 0.04 0.04 0.04 0.04 0.04 0.05 0.07
0.08 0.09 0.07 0.06 0.03 0.02 0.02 0.01 0.00 0.00 0.00 0.00 0.00 0.00 0.00 0.00 0.00 0.01 0.01 0.01 0.01 0.01 0.01 0.02 0.03 0.03 0.03 0.05 0.07 0.07 0.07 0.06 0.05 0.05 0.05 0.04 0.03 0.02 0.02 0.03 0.03 0.04 0.05
0.06 0.04 0.02 0.01 0.01 0.00 0.00 0.00 0.00 0.00 0.00 0.00 0.00 0.00 0.00 0.00 0.00 0.00 0.00 0.00 0.00 0.00 0.00 0.00 0.01 0.01 0.02 0.03 0.04 0.04 0.04 0.03 0.03 0.03 0.03 0.03 0.03 0.02 0.02 0.02 0.02 0.03 0.03
0.03 0.01 0.00 0.00 0.00 0.00 0.00 0.00 0.00 0.00 0.00 0.00 0.00 0.00 0.00 0.00 0.00 0.00 0.00 0.00 0.00 0.00 0.00 0.00 0.00 0.00 0.01 0.02 0.02 0.02 0.02 0.03 0.02 0.02 0.01 0.02 0.03 0.03 0.02 0.02 0.02 0.02 0.03
0.01 0.00 0.00 0.00 0.00 0.00 0.00 0.00 0.00 0.00 0.00 0.00 0.00 0.00 0.00 0.00 0.00 0.00 0.00 0.00 0.00 0.00 0.00 0.00 0.00 0.00 0.00 0.01 0.02 0.01 0.02 0.02 0.02 0.01 0.02 0.02 0.02 0.03 0.04 0.05 0.04 0.04 0.03
0.00 0.00 0.00 0.00 0.00 0.00 0.00 0.00 0.00 0.00 0.00 0.00 0.00 0.00 0.00 0.00 0.00 0.00 0.00 0.00 0.00 0.00 0.00 0.00 0.00 0.00 0.00 0.01 0.02 0.03 0.02 0.03 0.04 0.01 0.02 0.02 0.02 0.04 0.06 0.06 0.06 0.06 0.05
0.00 0.00 0.00 0.00 0.00 0.00 0.00 0.00 0.00 0.00 0.00 0.00 0.00 0.00 0.00 0.00 0.00 0.00 0.00 0.00 0.00 0.00 0.00 0.00 0.00 0.00 0.00 0.00 0.01 0.03 0.04 0.04 0.05 0.04 0.05 0.04 0.04 0.06 0.07 0.07 0.06 0.07 0.07
0.00 0.00 0.00 0.00 0.00 0.00 0.00 0.00 0.00 0.00 0.00 0.00 0.00 0.00 0.00 0.00 0.00 0.00 0.00 0.00 0.00 0.00 0.00 0.00 0.00 0.00 0.01 0.00 0.00 0.01 0.02 0.04 0.06 0.07 0.08 0.07 0.05 0.04 0.05 0.06 0.06 0.07 0.09
0.00 0.00 0.01 0.01 0.01 0.01 0.00 0.00 0.00 0.00 0.00 0.00 0.00 0.00 0.00 0.00 0.00 0.00 0.00 0.00 0.00 0.00 0.00 0.00 0.00 0.00 0.01 0.00 0.00 0.00 0.00 0.01 0.03 0.05 0.06 0.08 0.06 0.04 0.04 0.04 0.06 0.08 0.09
0.00 0.00 0.01 0.01 0.01 0.00 0.00 0.00 0.00 0.00 0.00 0.00 0.00 0.00 0.00 0.00 0.00 0.00 0.00 0.00 0.00 0.00 0.00 0.00 0.00 0.00 0.01 0.01 0.01 0.00 0.00 0.00 0.01 0.01 0.02 0.03 0.04 0.03 0.02 0.03 0.04 0.05 0.09
MSLP
1012.81 1012.99 1013.26 1013.58 1013.91 1014.20 1014.40 1014.48 1014.48 1014.42 1014.38 1014.41 1014.55 1014.82 1015.20 1015.64 1016.09 1016.47 1016.75 1016.91 1016.97 1016.96 1016.92 1016.90 1016.91 1016.95 1017.02 1017.08 1017.11 1017.09 1017.03 1016.95 1016.86 1016.80 1016.79 1016.84 1016.95 1017.10 1017.27 1017.45 1017.61 1017.76 1017.91
1012.86 1013.08 1013.40 1013.77 1014.16 1014.49 1014.72 1014.82 1014.82 1014.75 1014.69 1014.69 1014.82 1015.07 1015.44 1015.87 1016.30 1016.66 1016.91 1017.05 1017.08 1017.05 1017.01 1017.00 1017.02 1017.09 1017.19 1017.27 1017.31 1017.30 1017.23 1017.14 1017.04 1016.97 1016.96 1017.03 1017.16 1017.35 1017.56 1017.77 1017.96 1018.13 1018.28
1012.84 1013.08 1013.43 1013.86 1014.30 1014.69 1014.98 1015.13 1015.17 1015.13 1015.07 1015.08 1015.18 1015.41 1015.74 1016.12 1016.49 1016.80 1017.01 1017.10 1017.11 1017.07 1017.04 1017.04 1017.11 1017.22 1017.34 1017.45 1017.51 1017.50 1017.42 1017.31 1017.19 1017.12 1017.11 1017.18 1017.34 1017.55 1017.79 1018.03 1018.25 1018.44 1018.60
1012.80 1013.04 1013.40 1013.87 1014.36 1014.82 1015.18 1015.41 1015.50 1015.51 1015.48 1015.50 1015.59 1015.79 1016.07 1016.38 1016.69 1016.92 1017.06 1017.11 1017.10 1017.06 1017.04 1017.08 1017.18 1017.32 1017.48 1017.62 1017.68 1017.67 1017.58 1017.45 1017.32 1017.23 1017.22 1017.31 1017.47 1017.71 1017.98 1018.24 1018.49 1018.71 1018.89
1012.78 1012.99 1013.36 1013.85 1014.39 1014.90 1015.33 1015.62 1015.78 1015.84 1015.86 1015.89 1015.98 1016.15 1016.38 1016.63 1016.86 1017.03 1017.11 1017.12 1017.08 1017.04 1017.05 1017.11 1017.25 1017.43 1017.61 1017.75 1017.82 1017.80 1017.70 1017.55 1017.41 1017.32 1017.31 1017.40 1017.59 1017.84 1018.12 1018.41 1018.68 1018.92 1019.12
1012.82 1013.01 1013.36 1013.86 1014.42 1014.97 1015.44 1015.78 1015.99 1016.09 1016.14 1016.19 1016.28 1016.43 1016.63 1016.83 1017.01 1017.12 1017.16 1017.14 1017.09 1017.05 1017.07 1017.16 1017.32 1017.52 1017.71 1017.85 1017.91 1017.87 1017.76 1017.62 1017.47 1017.39 1017.39 1017.50 1017.69 1017.96 1018.25 1018.56 1018.84 1019.09 1019.31
1012.95 1013.10 1013.44 1013.92 1014.48 1015.04 1015.51 1015.87 1016.09 1016.22 1016.29 1016.35 1016.45 1016.59 1016.77 1016.94 1017.08 1017.16 1017.18 1017.14 1017.09 1017.07 1017.10 1017.21 1017.37 1017.57 1017.76 1017.89 1017.93 1017.89 1017.78 1017.63 1017.51 1017.44 1017.47 1017.60 1017.81 1018.08 1018.38 1018.68 1018.96 1019.21 1019.44
1013.15 1013.29 1013.60 1014.06 1014.59 1015.10 1015.54 1015.87 1016.08 1016.20 1016.27 1016.35 1016.45 1016.59 1016.77 1016.93 1017.06 1017.14 1017.14 1017.11 1017.06 1017.05 1017.09 1017.20 1017.37 1017.56 1017.73 1017.84 1017.88 1017.83 1017.72 1017.60 1017.51 1017.49 1017.55 1017.71 1017.94 1018.22 1018.51 1018.80 1019.06 1019.29 1019.51
1013.41 1013.54 1013.83 1014.25 1014.72 1015.17 1015.54 1015.81 1015.97 1016.05 1016.11 1016.18 1016.29 1016.44 1016.62 1016.80 1016.93 1017.01 1017.02 1017.00 1016.96 1016.96 1017.00 1017.11 1017.27 1017.45 1017.60 1017.70 1017.73 1017.69 1017.61 1017.52 1017.48 1017.51 1017.63 1017.82 1018.08 1018.36 1018.64 1018.90 1019.13 1019.33 1019.53
1013.69 1013.82 1014.10 1014.47 1014.86 1015.22 1015.50 1015.68 1015.76 1015.80 1015.83 1015.89 1016.00 1016.17 1016.37 1016.56 1016.70 1016.79 1016.81 1016.79 1016.76 1016.75 1016.80 1016.91 1017.06 1017.22 1017.36 1017.46 1017.49 1017.47 1017.42 1017.39 1017.41 1017.50 1017.68 1017.92 1018.20 1018.49 1018.75 1018.98 1019.17 1019.33 1019.49
1013.94 1014.10 1014.36 1014.68 1015.00 1015.26 1015.43 1015.51 1015.52 1015.50 1015.50 1015.55 1015.68 1015.86 1016.06 1016.26 1016.41 1016.50 1016.51 1016.49 1016.45 1016.45 1016.49 1016.59 1016.73 1016.89 1017.03 1017.13 1017.17 1017.18 1017.18 1017.21 1017.28 1017.44 1017.67 1017.96 1018.27 1018.57 1018.82 1019.02 1019.17 1019.29 1019.41
1014.15 1014.34 1014.59 1014.87 1015.11 1015.28 1015.36 1015.36 1015.30 1015.24 1015.21 1015.26 1015.39 1015.57 1015.79 1015.98 1016.12 1016.19 1016.18 1016.14 1016.09 1016.07 1016.10 1016.19 1016.32 1016.48 1016.62 1016.73 1016.80 1016.85 1016.89 1016.96 1017.09 1017.31 1017.59 1017.91 1018.25 1018.55 1018.80 1018.99 1019.11 1019.21 1019.30
1014.34 1014.55 1014.80 1015.03 1015.21 1015.31 1015.32 1015.25 1015.15 1015.06 1015.03 1015.08 1015.22 1015.41 1015.61 1015.78 1015.90 1015.93 1015.89 1015.81 1015.72 1015.67 1015.68 1015.76 1015.89 1016.05 1016.20 1016.32 1016.41 1016.48 1016.55 1016.66 1016.83 1017.07 1017.38 1017.73 1018.09 1018.41 1018.67 1018.86 1018.98 1019.06 1019.15
1014.51 1014.74 1014.98 1015.19 1015.33 1015.38 1015.34 1015.24 1015.13 1015.04 1015.02 1015.08 1015.22 1015.40 1015.59 1015.73 1015.79 1015.78 1015.68 1015.55 1015.42 1015.33 1015.32 1015.37 1015.49 1015.65 1015.80 1015.93 1016.02 1016.10 1016.18 1016.29 1016.47 1016.71 1017.03 1017.39 1017.76 1018.10 1018.38 1018.59 1018.74 1018.85 1018.95
1014.70 1014.93 1015.17 1015.35 1015.47 1015.49 1015.45 1015.35 1015.25 1015.19 1015.19 1015.27 1015.41 1015.58 1015.73 1015.83 1015.84 1015.76 1015.60 1015.41 1015.23 1015.10 1015.05 1015.08 1015.18 1015.32 1015.46 1015.58 1015.66 1015.72 1015.78 1015.87 1016.02 1016.24 1016.53 1016.88 1017.25 1017.60 1017.92 1018.17 1018.37 1018.53 1018.68
1014.92 1015.15 1015.37 1015.54 1015.65 1015.68 1015.65 1015.59 1015.52 1015.49 1015.52 1015.62 1015.76 1015.91 1016.03 1016.07 1016.02 1015.88 1015.66 1015.41 1015.18 1015.01 1014.92 1014.92 1014.99 1015.10 1015.21 1015.29 1015.34 1015.36 1015.37 1015.40 1015.49 1015.65 1015.89 1016.21 1016.56 1016.93 1017.28 1017.58 1017.85 1018.08 1018.29
1015.17 1015.38 1015.58 1015.75 1015.86 1015.92 1015.93 1015.91 1015.89 1015.91 1015.97 1016.07 1016.20 1016.32 1016.39 1016.38 1016.28 1016.08 1015.82 1015.53 1015.26 1015.05 1014.92 1014.88 1014.91 1014.98 1015.04 1015.07 1015.06 1015.02 1014.95 1014.90 1014.91 1014.99 1015.16 1015.42 1015.75 1016.11 1016.48 1016.84 1017.17 1017.48 1017.77
1015.44 1015.62 1015.80 1015.96 1016.09 1016.18 1016.23 1016.27 1016.30 1016.35 1016.43 1016.54 1016.64 1016.72 1016.75 1016.70 1016.55 1016.32 1016.03 1015.71 1015.42 1015.19 1015.03 1014.95 1014.92 1014.93 1014.94 1014.91 1014.83 1014.70 1014.55 1014.41 1014.32 1014.31 1014.39 1014.58 1014.86 1015.20 1015.58 1015.98 1016.37 1016.75 1017.10
1015.68 1015.82 1015.98 1016.14 1016.29 1016.42 1016.53 1016.61 1016.69 1016.76 1016.85 1016.93 1017.01 1017.05 1017.03 1016.94 1016.77 1016.52 1016.22 1015.91 1015.62 1015.37 1015.18 1015.06 1014.99 1014.94 1014.88 1014.78 1014.63 1014.43 1014.19 1013.97 1013.78 1013.67 1013.66 1013.76 1013.97 1014.27 1014.64 1015.05 1015.48 1015.90 1016.32
1015.85 1015.94 1016.08 1016.25 1016.43 1016.60 1016.75 1016.88 1016.99 1017.08 1017.15 1017.21 1017.24 1017.24 1017.18 1017.07 1016.89 1016.65 1016.37 1016.08 1015.80 1015.55 1015.36 1015.20 1015.09 1014.98 1014.85 1014.69 1014.47 1014.20 1013.90 1013.60 1013.33 1013.13 1013.03 1013.05 1013.18 1013.41 1013.74 1014.13 1014.56 1015.01 1015.45
1015.89 1015.96 1016.09 1016.27 1016.48 1016.69 1016.88 1017.05 1017.18 1017.27 1017.33 1017.35 1017.34 1017.30 1017.21 1017.08 1016.91 1016.70 1016.46 1016.20 1015.95 1015.72 1015.51 1015.34 1015.18 1015.02 1014.84 1014.62 1014.35 1014.04 1013.70 1013.35 1013.02 1012.75 1012.57 1012.49 1012.54 1012.69 1012.95 1013.29 1013.69 1014.12 1014.56
1015.79 1015.86 1015.99 1016.18 1016.42 1016.66 1016.90 1017.10 1017.25 1017.34 1017.38 1017.37 1017.33 1017.25 1017.15 1017.02 1016.86 1016.69 1016.49 1016.27 1016.06 1015.84 1015.64 1015.44 1015.25 1015.05 1014.83 1014.58 1014.28 1013.95 1013.59 1013.22 1012.86 1012.54 1012.30 1012.14 1012.10 1012.16 1012.33 1012.59 1012.93 1013.31 1013.71
1015.56 1015.63 1015.77 1015.99 1016.26 1016.54 1016.81 1017.04 1017.21 1017.31 1017.34 1017.31 1017.24 1017.15 1017.03 1016.91 1016.78 1016.64 1016.48 1016.31 1016.13 1015.93 1015.73 1015.51 1015.29 1015.07 1014.82 1014.55 1014.26 1013.93 1013.58 1013.22 1012.85 1012.51 1012.22 1012.00 1011.88 1011.85 1011.92 1012.08 1012.33 1012.63 1012.98
1015.21 1015.31 1015.48 1015.73 1016.02 1016.34 1016.65 1016.91 1017.10 1017.21 1017.25 1017.21 1017.13 1017.03 1016.92 1016.81 1016.70 1016.59 1016.47 1016.33 1016.17 1015.99 1015.78 1015.56 1015.32 1015.07 1014.81 1014.55 1014.26 1013.96 1013.64 1013.30 1012.96 1012.62 1012.31 1012.04 1011.84 1011.73 1011.70 1011.76 1011.91 1012.13 1012.39
1014.81 1014.95 1015.15 1015.43 1015.75 1016.10 1016.44 1016.73 1016.95 1017.08 1017.13 1017.10 1017.03 1016.93 1016.82 1016.72 1016.63 1016.54 1016.45 1016.33 1016.19 1016.01 1015.80 1015.56 1015.31 1015.05 1014.79 1014.54 1014.28 1014.01 1013.73 1013.44 1013.13 1012.80 1012.49 1012.19 1011.94 1011.75 1011.64 1011.61 1011.66 1011.78 1011.97
1014.40 1014.59 1014.83 1015.12 1015.47 1015.84 1016.20 1016.51 1016.76 1016.92 1016.99 1016.98 1016.92 1016.83 1016.73 1016.64 1016.55 1016.48 1016.40 1016.29 1016.16 1015.98 1015.77 1015.52 1015.27 1015.00 1014.75 1014.51 1014.28 1014.05 1013.81 1013.56 1013.29 1013.00 1012.69 1012.38 1012.10 1011.86 1011.68 1011.57 1011.54 1011.58 1011.68
Thickness
5821 5816 5804 5801 5798 5796 5795 5793 5792 5790 5788 5786 5783 5780 5778 5775 5773 5770 5768 5766 5764 5762 5761 5759 5758 5758 5757 5757 5756 5755 5754 5753 5752 5752 5751 5751 5750 5749 5749 5748 5747 5746 5742
5822 5813 5803 5800 5797 5795 5793 5791 5789 5788 5785 5783 5780 5778 5775 5773 5771 5768 5766 5764 5762 5761 5759 5758 5757 5756 5756 5755 5754 5753 5752 5752 5751 5751 5750 5750 5749 5748 5747 5747 5747 5745 5742
5819 5810 5801 5797 5794 5792 5790 5788 5786 5784 5782 5780 5777 5774 5772 5770 5768 5766 5764 5762 5760 5759 5757 5756 5755 5754 5753 5753 5752 5751 5751 5750 5749 5749 5750 5751 5748 5746 5746 5745 5744 5742 5740
5815 5807 5801 5793 5790 5788 5786 5784 5783 5780 5778 5776 5773 5771 5768 5766 5764 5763 5761 5759 5758 5757 5755 5754 5752 5751 5750 5750 5749 5749 5748 5748 5748 5749 5752 5752 5749 5744 5743 5743 5742 5740 5739
5811 5804 5796 5789 5786 5783 5781 5780 5778 5776 5774 5772 5769 5767 5765 5763 5761 5759 5758 5757 5756 5754 5753 5752 5750 5749 5748 5747 5746 5746 5746 5746 5746 5748 5751 5749 5747 5742 5741 5740 5740 5739 5738
5806 5801 5792 5785 5782 5779 5776 5775 5773 5771 5769 5767 5765 5763 5761 5760 5758 5757 5755 5754 5753 5752 5751 5750 5748 5747 5745 5744 5743 5743 5743 5743 5744 5750 5748 5748 5745 5741 5739 5739 5738 5737 5736
5805 5799 5789 5782 5779 5775 5773 5771 5769 5767 5765 5763 5761 5759 5758 5756 5755 5754 5753 5752 5751 5750 5749 5747 5746 5744 5742 5741 5740 5739 5739 5740 5744 5746 5745 5745 5743 5738 5737 5737 5736 5736 5735
5802 5796 5786 5778 5775 5772 5770 5768 5766 5764 5762 5760 5758 5756 5755 5753 5752 5751 5750 5749 5748 5747 5746 5745 5743 5741 5740 5738 5737 5736 5735 5735 5739 5742 5742 5743 5738 5736 5735 5735 5734 5734 5734
5797 5792 5784 5779 5773 5768 5767 5765 5763 5761 5759 5757 5755 5753 5752 5750 5749 5748 5747 5746 5745 5744 5743 5742 5741 5739 5737 5735 5733 5732 5731 5731 5735 5737 5739 5739 5735 5733 5733 5733 5733 5732 5732
5790 5787 5780 5777 5773 5769 5765 5761 5759 5757 5755 5753 5752 5750 5748 5747 5747 5746 5744 5743 5742 5741 5740 5739 5738 5737 5734 5732 5730 5729 5727 5727 5732 5734 5735 5735 5732 5731 5731 5731 5731 5731 5731
5780 5779 5776 5773 5767 5765 5763 5758 5756 5754 5751 5750 5749 5747 5746 5747 5747 5746 5744 5741 5739 5738 5738 5736 5735 5734 5732 5730 5728 5726 5724 5726 5730 5732 5731 5730 5728 5728 5728 5729 5729 5729 5729
5771 5770 5768 5766 5762 5759 5757 5754 5753 5752 5749 5747 5747 5746 5745 5744 5743 5744 5742 5738 5736 5736 5735 5734 5732 5731 5730 5731 5729 5725 5725 5725 5726 5728 5728 5725 5724 5725 5726 5727 5728 5728 5728
5767 5763 5761 5759 5756 5754 5751 5750 5747 5747 5744 5743 5742 5742 5740 5739 5739 5739 5738 5736 5735 5734 5734 5733 5731 5731 5731 5730 5729 5727 5725 5724 5723 5724 5725 5722 5720 5721 5722 5724 5725 5726 5727
5761 5757 5756 5753 5750 5747 5746 5744 5742 5742 5741 5740 5737 5736 5736 5736 5736 5736 5735 5734 5733 5732 5731 5731 5729 5730 5728 5727 5726 5725 5724 5722 5722 5723 5721 5719 5718 5717 5719 5721 5723 5724 5725
5754 5751 5748 5746 5743 5740 5739 5739 5738 5737 5737 5735 5733 5733 5732 5733 5733 5733 5731 5729 5730 5729 5728 5727 5726 5726 5725 5724 5723 5723 5722 5722 5721 5720 5719 5716 5716 5715 5716 5718 5720 5722 5724
5747 5744 5742 5740 5737 5735 5734 5733 5732 5732 5730 5730 5727 5726 5725 5727 5726 5727 5726 5725 5725 5724 5723 5722 5722 5721 5721 5721 5721 5721 5720 5719 5719 5717 5717 5716 5715 5714 5714 5715 5717 5719 5721
5742 5740 5737 5736 5733 5731 5730 5729 5727 5726 5724 5722 5720 5718 5717 5718 5718 5719 5720 5720 5720 5718 5717 5717 5717 5717 5717 5718 5718 5718 5718 5718 5718 5717 5716 5716 5716 5715 5714 5714 5715 5717 5719
5739 5736 5735 5735 5730 5727 5724 5722 5722 5720 5717 5715 5713 5711 5709 5708 5709 5710 5713 5714 5712 5713 5713 5713 5713 5713 5712 5713 5714 5715 5716 5716 5717 5716 5716 5716 5715 5716 5716 5714 5715 5715 5717
5736 5733 5730 5728 5725 5723 5719 5717 5715 5711 5709 5708 5707 5704 5702 5702 5702 5703 5705 5705 5705 5707 5708 5708 5709 5707 5707 5707 5709 5711 5714 5715 5716 5716 5716 5716 5716 5715 5716 5716 5715 5715 5716
5733 5730 5727 5723 5720 5717 5715 5712 5710 5707 5705 5703 5700 5696 5695 5695 5695 5695 5699 5697 5698 5701 5701 5700 5698 5698 5699 5701 5704 5708 5711 5714 5715 5716 5716 5716 5716 5715 5715 5715 5714 5715 5715
5730 5727 5724 5720 5716 5712 5710 5708 5705 5703 5701 5698 5695 5690 5689 5688 5688 5688 5690 5690 5690 5693 5692 5693 5693 5694 5695 5697 5697 5701 5708 5713 5715 5715 5716 5717 5717 5716 5714 5713 5713 5715 5717
5729 5725 5721 5716 5714 5709 5706 5703 5699 5697 5696 5693 5689 5685 5683 5682 5681 5684 5681 5683 5685 5683 5685 5685 5685 5687 5691 5693 5690 5691 5696 5704 5708 5714 5714 5713 5713 5714 5713 5712 5712 5713 5714
5729 5725 5722 5717 5712 5708 5704 5701 5697 5693 5692 5692 5687 5684 5680 5677 5677 5676 5675 5676 5676 5678 5681 5678 5679 5680 5683 5686 5688 5684 5684 5689 5694 5704 5705 5707 5706 5707 5709 5710 5711 5712 5712
5731 5728 5723 5717 5712 5707 5703 5700 5697 5691 5688 5686 5683 5682 5678 5675 5673 5672 5671 5670 5670 5672 5672 5673 5677 5675 5674 5677 5681 5680 5679 5680 5678 5684 5693 5698 5699 5700 5703 5706 5709 5710 5710
5735 5731 5726 5719 5713 5708 5703 5699 5694 5691 5689 5687 5682 5679 5675 5676 5672 5670 5668 5666 5665 5667 5666 5664 5665 5666 5669 5670 5672 5674 5674 5674 5675 5673 5677 5684 5690 5696 5699 5701 5704 5707 5708
5736 5732 5727 5720 5714 5709 5703 5699 5693 5689 5685 5681 5678 5676 5675 5675 5672 5669 5665 5662 5661 5661 5659 5658 5657 5659 5659 5659 5661 5664 5665 5666 5668 5670 5670 5674 5679 5686 5692 5696 5700 5703 5705